Regional Weather Roundup
Issued by NWS Albany, NY

Home | Current Version | Previous Version | Text Only | Print | Product List | Glossary On
Versions: 1 2 3 4 5 6 7 8 9 10 11 12 13 14 15 16 17 18 19 20 21 22 23 24 25 26 27 28 29 30 31 32 33 34 35 36 37 38 39 40 41 42 43 44 45 46 47 48 49 50
000
ASUS41 KALY 032010
RWRALY

NEW YORK STATE HOURLY WEATHER ROUNDUP
NATIONAL WEATHER SERVICE ALBANY NY
400 PM EDT SUN MAY 03 2015

NOTE: "FAIR" INDICATES FEW OR NO CLOUDS BELOW 12,000 FEET WITH NO
SIGNIFICANT WEATHER AND/OR NO OBSTRUCTIONS TO VISIBILITY.

NYZ032-033-038>043-046>054-057>066-NYZ062>081-032100-
EAST


CITY           SKY/WX    TMP DP  RH WIND       PRES   REMARKS
ALBANY         PTSUNNY   79  38  22 W5        30.01F
GLENS FALLS    CLOUDY    74  41  30 SW6       30.01S
POUGHKEEPSIE   MOSUNNY   79  39  23 SE3       30.02F
NEWBURGH       PTSUNNY   72  43  35 NW8       30.04F
MONTGOMERY     MOSUNNY   78  39  24 NW8       30.02F
WHITE PLAINS   MOSUNNY   74  37  26 SW9       30.04F
ISLIP          MOSUNNY   62  47  57 S10       30.08F
NEW YORK CITY  MOSUNNY   74  41  30 S14       30.05F
CENTRAL PARK   SUNNY     77  36  22 MISG      30.08F
$$

NYZ005>009-017-018-044>046-055-056-032100-
CENTRAL


CITY           SKY/WX    TMP DP  RH WIND       PRES   REMARKS
FULTON         SUNNY     76  36  23 VRB6      30.04F
SYRACUSE       MOSUNNY   78  38  23 W12G17    30.03F
ROME           SUNNY     75  36  24 W9G20     30.04F
ELMIRA         MOSUNNY   75  37  25 CALM      30.05F
BINGHAMTON     MOSUNNY   73  34  23 W9        30.07S
MONTICELLO     MOSUNNY   73  36  25 W14       30.08F
$$

NYZ026>034-041>043-032100-
NORTH


CITY           SKY/WX    TMP DP  RH WIND       PRES   REMARKS
WATERTOWN      SUNNY     71  42  35 W10       30.04F
FORT DRUM      NOT AVBL
MASSENA        SUNNY     78  39  24 SW9       29.99F
SARANAC LAKE   PTSUNNY   71  30  21 VRB5      30.01S
PLATTSBURGH    PTSUNNY   71  36  27 SE8       29.98F
$$

NYZ001>004-010>016-019>021-032100-
WEST


CITY           SKY/WX    TMP DP  RH WIND       PRES   REMARKS
NIAGARA FALLS  MOSUNNY   75  41  29 SW20      30.04F
BUFFALO        MOSUNNY   70  41  34 SW15      30.07F
DUNKIRK        SUNNY     73  41  31 W12       30.07F
JAMESTOWN      PTSUNNY   70  39  32 NW7       30.10F
WELLSVILLE     MOSUNNY   73  33  23 NW9       30.11F
ROCHESTER      MOSUNNY   78  37  22 W13G24    30.04F
PENN YAN       MOSUNNY   76  38  25 VRB3      30.06F
$$

             KEY
       WCI = WIND CHILL INDEX
       VSB = VISIBILITY
       HX  = HEAT INDEX
$$


USA.gov is the U.S. government's official web portal to all federal, state and local government web resources and services.